Date,TemperatureHighF,TemperatureAvgF,TemperatureLowF,DewpointHighF,DewpointAvgF,DewpointLowF,HumidityHigh,HumidityAvg,HumidityLow,PressureMaxIn,PressureMinIn,WindSpeedMaxMPH,WindSpeedAvgMPH,GustSpeedMaxMPH,PrecipitationSumIn
2012-1-1,46.6,37.3,28.0,39.6,25.2,14.2,100,64,36,30.35,29.78,34,14,37,0.00
2012-1-2,30.4,24.6,17.2,18.1,12.2,6.1,72,59,46,30.49,30.32,37,15,37,0.00
2012-1-3,39.7,24.7,10.0,19.3,12.9,7.7,100,65,36,30.49,29.99,17,7,18,0.00
2012-1-4,48.7,37.8,30.0,34.2,27.3,14.9,86,67,44,30.17,29.96,17,7,17,0.00
2012-1-5,63.0,49.2,33.6,38.7,33.3,28.6,86,57,32,30.08,29.78,14,8,15,0.00
2012-1-6,59.5,47.3,41.0,37.6,33.0,29.5,66,58,44,29.93,29.75,13,6,14,0.00
2012-1-7,48.0,36.6,27.7,33.1,30.1,26.6,100,79,54,30.23,29.96,13,4,13,0.00
2012-1-8,45.3,32.1,23.5,38.1,29.8,23.4,100,92,62,30.35,30.23,9,1,9,0.00
2012-1-9,50.7,31.3,21.7,40.3,27.8,21.7,100,89,48,30.29,30.05,10,2,10,0.00
2012-1-10,58.5,41.5,28.6,36.2,29.0,22.2,100,65,34,30.08,29.75,21,5,21,0.00
2012-1-11,57.6,38.3,23.9,39.9,30.3,22.8,100,78,34,29.75,29.55,28,6,28,0.00
2012-1-12,24.6,16.1,13.3,23.1,15.6,12.8,100,98,90,29.90,29.75,28,11,28,0.00
2012-1-13,23.5,14.5,9.9,15.7,10.5,3.8,98,85,68,30.11,29.87,15,6,15,0.00
2012-1-14,33.6,22.5,11.7,27.1,19.5,5.6,100,89,68,30.23,29.96,13,4,13,0.00
2012-1-15,46.0,34.1,20.7,31.9,26.6,20.7,100,76,56,30.26,29.90,24,10,27,0.00
2012-1-16,67.3,50.1,39.2,51.6,41.5,30.9,100,74,48,29.93,29.61,21,9,24,0.00
2012-1-17,39.0,26.6,14.2,39.0,24.6,10.3,100,92,72,30.35,29.61,25,11,28,0.20
2012-1-18,33.4,21.9,7.2,21.5,14.7,4.8,100,75,60,30.37,29.87,21,7,25,0.00
2012-1-19,31.6,18.8,8.4,25.9,11.6,0.1,100,73,64,30.17,29.84,28,9,29,0.00
2012-1-20,24.3,17.4,8.2,19.6,10.9,-0.1,100,76,64,30.17,29.87,16,6,16,0.00
2012-1-21,31.5,22.3,15.8,27.5,19.9,15.8,100,91,68,30.26,29.93,18,6,19,0.00
2012-1-22,47.8,36.2,27.3,47.8,36.2,27.3,100,100,100,29.96,29.37,22,9,28,0.08
2012-1-23,47.5,35.2,30.9,47.5,32.6,26.3,100,90,82,30.05,29.37,26,9,26,0.00
2012-1-24,43.2,31.3,21.2,31.9,27.7,21.2,100,88,58,30.32,30.05,12,3,12,0.00
2012-1-25,39.7,33.0,28.6,34.7,31.9,27.9,100,96,80,30.29,29.99,12,4,12,0.00
2012-1-26,44.4,36.2,32.4,42.5,35.8,32.4,100,99,84,29.99,29.72,16,4,17,0.00
2012-1-27,39.0,32.8,23.5,37.6,31.2,23.5,100,95,74,30.05,29.81,17,3,17,0.00
2012-1-28,40.3,31.3,20.5,32.9,25.8,20.5,100,81,60,30.26,30.02,15,4,17,0.08
2012-1-29,42.6,32.9,27.9,27.9,21.8,16.6,78,64,46,30.26,30.11,15,6,15,0.08
2012-1-30,67.3,49.9,33.3,44.5,33.5,21.5,72,55,30,30.14,29.84,23,12,25,0.00
2012-1-31,64.8,55.3,43.0,56.5,47.8,40.6,100,76,60,30.02,29.81,24,10,30,0.00
2012-2-1,57.7,44.0,31.1,45.3,39.2,31.1,100,85,50,30.17,30.02,9,2,9,0.00
2012-2-2,64.8,46.5,34.3,42.6,35.9,27.8,100,72,30,30.29,30.14,8,3,9,0.00
2012-2-3,55.8,45.0,36.0,46.9,40.1,36.0,100,85,52,30.32,30.11,20,5,20,0.31
2012-2-4,42.8,40.0,37.0,42.8,40.0,37.0,100,100,100,30.17,30.05,15,7,17,0.04
2012-2-5,46.2,36.4,30.6,42.1,35.4,30.6,100,97,70,30.32,30.17,16,8,16,0.00
2012-2-6,43.7,33.5,28.9,36.1,31.8,28.9,100,94,66,30.29,30.14,12,4,12,0.00
2012-2-7,34.3,31.6,28.0,34.3,31.6,28.0,100,100,100,30.37,30.17,13,5,14,0.00
2012-2-8,35.8,29.5,20.5,32.9,28.3,20.5,100,95,78,30.43,30.35,11,5,12,0.00
2012-2-9,33.8,26.6,15.3,33.8,24.9,15.3,100,94,76,30.37,30.08,12,4,12,0.00
2012-2-10,35.4,28.5,17.4,35.4,26.0,14.2,100,90,70,30.32,29.96,26,12,26,0.00
2012-2-11,27.9,17.8,9.9,14.5,7.8,2.5,90,67,42,30.58,30.32,25,12,27,0.00
2012-2-12,39.2,24.1,10.9,15.6,8.5,3.7,72,53,36,30.55,30.23,13,6,17,0.00
2012-2-13,34.3,30.9,27.7,34.3,25.4,9.6,100,84,46,30.23,29.81,17,7,17,0.00
2012-2-14,38.5,34.1,30.7,37.2,33.3,30.7,100,97,84,29.99,29.78,13,5,13,0.04
2012-2-15,45.9,38.7,29.8,45.7,38.4,29.8,100,99,92,29.99,29.90,13,4,13,0.12
2012-2-16,49.8,39.5,32.4,42.4,33.8,25.7,100,82,48,30.23,29.96,15,6,17,0.00
2012-2-17,59.5,40.6,29.7,39.1,33.3,28.9,100,78,38,30.20,30.02,17,5,17,0.00
2012-2-18,49.8,34.3,25.0,32.6,29.0,25.0,100,84,48,30.23,30.14,15,6,15,0.00
2012-2-19,50.5,35.2,25.0,30.8,25.5,16.4,100,72,38,30.20,30.11,13,3,13,0.00
2012-2-20,49.6,38.1,25.9,33.5,27.8,22.6,100,69,38,30.20,29.70,22,8,23,0.00
2012-2-21,55.9,44.8,37.4,45.3,34.3,25.7,100,71,34,29.81,29.61,21,9,21,0.00
2012-2-22,60.3,46.4,37.8,38.1,31.3,26.2,78,57,36,29.72,29.43,15,6,19,0.00
2012-2-23,64.4,46.6,39.2,48.2,41.9,33.6,100,86,48,29.52,29.31,20,6,24,0.12
2012-2-24,42.1,35.1,29.8,37.8,29.4,20.4,100,81,56,30.14,29.52,28,12,28,0.04
2012-2-25,42.4,30.8,21.9,28.1,19.8,14.2,98,65,42,30.32,30.11,22,8,22,0.00
2012-2-26,65.1,46.1,30.4,33.8,26.9,18.3,84,49,26,30.17,29.93,37,12,37,0.00
2012-2-27,47.3,35.6,28.0,34.5,23.8,16.4,100,65,38,30.46,30.14,17,6,19,0.00
2012-2-28,63.1,44.8,30.0,55.9,35.7,25.0,100,73,36,30.40,29.55,20,8,21,0.16
2012-2-29,60.8,49.6,34.5,60.8,36.2,25.5,100,62,34,29.84,29.52,30,12,31,0.00
2012-3-1,63.1,43.1,26.6,38.4,31.7,26.6,100,69,32,29.90,29.58,13,4,13,0.00
2012-3-2,40.5,35.8,30.6,40.1,35.5,30.6,100,99,86,29.84,29.46,23,9,24,0.04
2012-3-3,43.7,33.3,26.2,32.0,26.0,22.0,100,76,56,29.93,29.81,25,8,25,0.00
2012-3-4,37.9,29.4,19.9,33.0,25.9,19.9,100,88,60,30.14,29.87,23,3,23,0.00
2012-3-5,50.2,35.3,19.9,31.2,25.0,19.9,100,71,38,30.37,30.08,17,7,21,0.00
2012-3-6,75.7,59.6,40.3,38.6,31.7,26.5,58,38,20,30.08,29.81,35,17,35,0.00
2012-3-7,72.0,63.6,44.1,56.3,45.3,34.2,100,53,38,29.93,29.81,34,18,38,0.12
2012-3-8,48.9,38.8,32.5,44.1,31.1,23.6,100,77,38,30.40,29.93,25,9,25,0.28
2012-3-9,54.7,39.2,30.4,29.4,23.1,14.8,86,56,30,30.58,30.37,17,6,17,0.00
2012-3-10,66.7,48.6,34.2,34.0,26.8,22.2,64,45,24,30.43,30.17,23,9,24,0.00
2012-3-11,65.7,51.1,38.1,56.8,39.8,25.5,100,69,32,30.20,29.87,23,9,24,0.31
2012-3-12,72.7,60.2,50.0,60.1,54.4,48.6,100,85,44,29.93,29.75,21,8,21,0.00
2012-3-13,81.1,60.4,41.2,62.1,46.8,35.3,100,69,24,30.11,29.93,13,3,13,0.00
2012-3-14,84.0,71.1,59.7,66.2,57.0,45.9,100,64,38,29.99,29.84,23,11,23,0.00
2012-3-15,82.4,67.9,60.8,66.0,62.1,54.1,100,85,40,30.02,29.93,19,7,19,0.00
2012-3-16,79.2,70.6,65.8,63.0,59.9,54.1,90,71,44,29.99,29.93,15,8,15,0.00
2012-3-17,82.0,67.8,60.3,67.3,59.1,47.6,100,77,42,30.02,29.90,22,8,22,0.00
2012-3-18,83.3,69.1,59.4,64.2,57.8,51.4,100,72,38,29.99,29.87,24,9,24,0.00
2012-3-19,84.6,71.5,64.0,70.2,61.0,45.9,100,74,26,29.90,29.72,27,9,27,0.24
2012-3-20,81.7,68.0,58.1,65.3,56.3,42.8,100,73,28,29.96,29.78,26,7,27,0.00
2012-3-21,81.3,69.4,58.1,66.0,54.2,41.8,100,64,28,29.99,29.87,17,4,17,0.00
2012-3-22,71.4,60.0,50.9,65.3,57.0,50.9,100,91,54,30.02,29.90,22,5,22,0.04
2012-3-23,74.3,56.9,49.3,63.0,54.0,46.6,100,92,44,29.93,29.75,12,3,13,0.04
2012-3-24,72.3,58.8,48.7,64.0,56.1,48.7,100,92,62,29.96,29.78,14,4,14,0.00
2012-3-25,79.5,63.3,48.4,64.6,53.9,48.1,100,77,40,30.08,29.96,10,2,11,0.00
2012-3-26,71.8,58.8,50.9,58.0,44.3,31.5,100,64,30,30.20,30.02,15,4,15,0.00
2012-3-27,83.8,67.3,51.4,57.1,45.1,34.8,66,47,22,30.05,29.78,25,11,25,0.00
2012-3-28,80.6,66.4,50.7,63.1,45.1,31.2,100,52,24,29.99,29.84,13,4,13,0.00
2012-3-29,63.0,54.8,50.2,58.1,49.3,37.2,100,84,48,30.02,29.75,15,4,15,0.24
2012-3-30,73.8,61.7,51.1,64.2,55.0,49.4,100,81,46,29.84,29.64,17,7,17,0.00
2012-3-31,77.0,61.1,48.2,60.0,53.0,48.2,100,78,42,29.90,29.67,13,5,15,0.00
2012-4-1,89.2,73.0,59.4,64.0,53.7,39.0,100,59,20,29.67,29.49,17,6,17,0.00
2012-4-2,92.3,74.0,56.5,63.6,53.1,39.0,100,56,18,29.70,29.52,17,5,17,0.00
2012-4-3,90.3,72.4,60.8,64.4,56.6,45.6,100,61,24,29.78,29.70,17,6,17,0.00
2012-4-4,63.7,56.1,47.5,60.1,51.9,42.6,100,86,64,29.84,29.72,13,4,15,0.20
2012-4-5,68.2,52.6,43.3,47.3,40.8,32.4,100,69,30,30.05,29.78,15,4,18,0.24
2012-4-6,67.3,48.9,31.1,43.4,35.5,29.4,100,65,30,30.23,30.05,10,3,10,0.00
2012-4-7,63.1,51.9,41.5,55.4,45.1,40.0,100,80,48,30.23,30.08,15,5,15,0.00
2012-4-8,70.5,54.5,36.1,47.1,36.5,27.0,100,60,24,30.32,30.05,17,4,17,0.00
2012-4-9,71.4,57.4,40.3,40.1,33.4,25.7,98,45,24,30.11,29.96,20,6,25,0.00
2012-4-10,61.9,48.8,35.1,31.7,25.3,18.9,78,41,28,30.17,30.05,24,8,26,0.00
2012-4-11,62.6,44.7,30.9,32.8,27.6,20.2,84,54,32,30.29,30.14,16,5,17,0.00
2012-4-12,69.3,53.1,28.6,39.9,31.9,27.3,100,51,24,30.23,30.02,17,5,17,0.00
2012-4-13,55.8,52.3,46.9,53.8,46.8,30.7,100,84,40,30.08,29.90,23,9,23,0.59
2012-4-14,73.6,62.8,53.2,69.3,61.5,53.2,100,96,70,29.90,29.58,23,7,24,0.43
2012-4-15,72.1,68.2,59.7,70.7,62.0,56.5,100,81,64,29.64,29.46,30,13,30,0.35
2012-4-16,66.0,57.2,48.4,58.6,45.1,37.5,100,66,40,30.17,29.52,29,10,31,0.00
2012-4-17,73.6,56.2,38.8,53.6,42.2,35.1,100,66,26,30.35,30.17,11,3,11,0.00
2012-4-18,77.7,64.1,52.3,52.0,47.6,40.8,94,59,30,30.17,29.87,23,9,23,0.00
2012-4-19,80.2,67.8,56.7,62.8,45.6,37.5,100,48,24,29.93,29.61,21,9,22,0.04
2012-4-20,62.2,49.2,41.0,62.2,47.1,41.0,100,93,72,29.99,29.64,24,10,24,0.20
2012-4-21,63.9,48.1,33.3,49.0,38.7,32.5,100,75,38,30.02,29.90,11,2,12,0.08
2012-4-22,61.2,49.4,38.3,51.4,42.5,36.3,100,80,44,30.11,29.84,23,6,24,0.31
2012-4-23,64.4,49.4,34.0,49.8,39.9,34.0,100,74,36,30.11,29.87,28,5,28,0.00
2012-4-24,81.9,62.9,44.1,58.1,47.3,42.3,100,63,28,29.87,29.49,16,6,17,0.00
2012-4-25,89.2,71.9,58.3,67.5,58.5,49.9,100,69,30,29.58,29.46,24,5,26,0.00
2012-4-26,75.4,64.9,52.9,64.2,50.9,32.8,100,66,26,29.99,29.58,20,7,20,0.00
2012-4-27,65.5,53.5,43.2,40.1,28.1,22.4,66,39,26,30.14,29.81,23,5,23,0.00
2012-4-28,76.3,62.0,51.8,58.3,48.8,36.4,100,64,42,30.05,29.78,17,4,23,0.04
2012-4-29,56.3,51.6,46.9,56.3,51.6,46.9,100,100,96,30.11,29.87,11,2,13,0.47
2012-4-30,63.7,58.2,54.5,63.1,58.1,54.5,100,99,88,29.96,29.84,13,3,13,0.04
2012-5-1,80.6,65.0,53.8,71.1,62.1,53.8,100,92,56,29.90,29.67,16,4,17,0.63
2012-5-2,87.6,74.7,64.4,70.5,64.8,56.0,100,75,36,29.93,29.72,21,8,26,0.04
2012-5-3,87.1,76.4,69.4,74.6,68.3,62.2,100,78,48,29.93,29.75,28,10,28,0.00
2012-5-4,79.2,71.0,63.7,71.8,69.6,63.5,100,96,62,29.93,29.78,16,4,16,0.67
2012-5-5,93.2,79.3,66.7,75.8,67.2,59.1,100,72,34,29.84,29.75,10,2,10,0.00
2012-5-6,95.2,78.4,69.1,77.4,67.4,59.1,100,74,34,29.81,29.64,18,3,18,0.00
2012-5-7,75.6,66.4,57.9,69.1,59.4,46.1,100,81,42,29.90,29.75,21,8,21,0.00
2012-5-8,75.7,63.9,54.1,55.7,43.9,32.5,98,54,26,29.93,29.87,18,7,20,0.00
2012-5-9,73.4,59.2,46.9,51.9,46.1,37.3,100,67,32,29.99,29.84,15,5,15,0.00
2012-5-10,79.7,62.0,47.3,53.9,45.1,35.1,100,62,24,29.99,29.84,10,2,11,0.00
2012-5-11,82.4,69.0,55.8,55.8,47.6,39.8,78,50,22,30.05,29.93,17,7,17,0.00
2012-5-12,71.6,63.8,57.7,63.9,59.4,54.9,100,87,58,30.17,30.05,17,6,17,0.00
2012-5-13,76.8,64.2,50.7,57.7,45.0,33.6,100,59,26,30.17,30.05,20,4,20,0.00
2012-5-14,83.1,65.6,47.8,64.9,45.6,33.3,100,58,22,30.11,29.93,11,2,11,0.00
2012-5-15,88.0,71.3,52.5,54.2,46.8,39.0,94,47,20,29.99,29.84,13,5,14,0.00
2012-5-16,81.3,67.1,53.8,55.0,46.8,33.1,84,52,24,30.02,29.87,13,4,14,0.00
2012-5-17,84.9,67.1,50.7,46.1,39.1,34.7,70,39,22,30.08,29.90,10,4,10,0.00
2012-5-18,89.8,74.0,57.6,56.2,45.8,38.8,58,40,20,29.96,29.81,15,6,15,0.00
2012-5-19,91.9,78.6,66.4,62.7,55.1,48.1,66,47,24,29.90,29.84,22,7,22,0.00
2012-5-20,89.1,76.5,61.2,62.7,57.8,50.8,76,54,36,30.08,29.87,19,9,19,0.00
2012-5-21,77.4,63.3,50.5,53.6,43.3,30.8,100,55,26,30.17,30.02,25,8,25,0.00
2012-5-22,85.8,66.8,45.3,54.8,44.5,35.3,100,54,22,30.05,29.78,10,2,10,0.00
2012-5-23,86.5,73.3,58.6,49.9,45.6,39.8,70,41,22,29.81,29.58,20,8,20,0.00
2012-5-24,93.9,79.1,66.6,69.1,50.3,42.0,90,39,18,29.70,29.46,27,10,27,0.00
2012-5-25,92.5,76.0,62.6,70.7,56.6,41.9,100,60,18,29.93,29.70,11,3,11,0.00
2012-5-26,97.2,86.1,72.0,73.9,65.6,56.4,100,55,26,29.96,29.84,17,6,17,0.00
2012-5-27,94.8,83.9,73.2,73.7,55.9,41.4,86,43,18,29.90,29.72,22,9,22,0.00
2012-5-28,94.3,82.0,72.0,73.6,57.9,48.1,98,47,22,29.78,29.67,21,9,25,0.04
2012-5-29,86.9,74.8,60.4,61.2,46.8,36.5,88,42,22,29.87,29.78,25,5,25,0.00
2012-5-30,81.5,69.0,52.0,55.2,43.1,35.3,100,43,24,29.96,29.78,17,4,17,0.00
2012-5-31,62.2,56.9,51.6,56.1,49.4,41.0,100,80,48,29.90,29.72,17,5,17,0.12
2012-6-1,72.7,58.4,45.1,56.7,43.8,32.0,100,66,28,29.93,29.81,19,6,23,0.12
2012-6-2,80.6,66.7,53.8,57.4,49.2,39.0,100,58,24,29.84,29.72,15,5,15,0.12
2012-6-3,90.7,72.4,51.4,65.1,51.2,40.1,100,58,20,29.84,29.75,8,2,8,0.12
2012-6-4,90.7,74.3,59.9,71.1,62.1,53.9,100,71,36,29.87,29.72,20,4,20,0.12
2012-6-5,87.8,72.0,54.7,63.9,48.5,38.2,100,53,20,29.96,29.87,16,2,17,0.12
2012-6-6,87.3,71.4,53.2,56.3,46.5,35.3,100,47,22,30.02,29.90,9,2,9,0.12
2012-6-7,90.0,72.1,51.4,63.5,46.6,35.9,100,49,20,30.11,29.99,10,1,10,0.12
2012-6-8,91.2,74.2,53.1,66.9,47.2,36.6,100,47,20,30.05,29.84,13,3,13,0.12
2012-6-9,93.4,78.7,63.7,54.8,48.0,41.8,66,38,18,29.90,29.72,15,6,17,0.12
2012-6-10,91.9,79.9,69.4,65.1,58.7,52.5,72,50,28,29.81,29.72,20,8,21,0.12
2012-6-11,86.2,75.0,67.3,73.6,65.0,55.5,100,75,38,29.93,29.75,17,4,17,0.28
2012-6-12,80.2,67.8,53.8,60.6,48.4,34.3,100,58,24,30.11,29.93,20,5,21,0.12
2012-6-13,86.0,71.2,50.2,57.2,46.8,37.7,100,49,22,30.14,29.96,11,3,13,0.00
2012-6-14,90.1,76.0,58.1,53.9,47.3,39.5,74,40,20,29.99,29.84,17,6,17,0.00
2012-6-15,93.9,78.3,66.6,72.6,53.5,41.1,100,49,18,29.96,29.81,17,6,17,2.52
2012-6-16,93.7,77.6,68.5,76.8,67.6,48.4,100,78,24,29.96,29.78,22,6,24,0.35
2012-6-17,91.6,77.9,66.6,77.0,66.6,51.8,100,74,34,29.93,29.70,13,4,13,0.00
2012-6-18,92.8,83.6,74.7,71.3,62.8,50.5,86,53,28,29.75,29.64,24,11,24,0.00
2012-6-19,93.4,83.7,74.3,72.3,63.9,54.2,90,54,30,29.87,29.75,23,10,23,1.61
2012-6-20,93.6,84.3,75.2,67.7,61.9,54.4,70,49,28,29.93,29.78,21,10,21,1.61
2012-6-21,80.4,74.7,70.5,72.2,67.0,59.9,100,79,50,29.90,29.87,13,5,13,0.00
2012-6-22,90.1,71.3,63.9,64.4,57.3,43.1,100,69,22,29.93,29.90,4,0,4,0.00
2012-6-23,84.9,72.7,61.2,72.2,58.7,45.6,100,66,32,29.96,29.87,12,3,13,0.00
2012-6-24,98.1,81.1,68.0,76.7,57.7,49.2,100,49,22,29.93,29.81,14,4,14,0.00
2012-6-25,90.3,78.3,59.7,75.9,57.8,37.1,100,57,20,29.93,29.84,13,2,13,0.00
2012-6-26,88.9,71.4,50.7,56.8,47.8,39.2,100,51,20,29.96,29.81,12,3,13,0.00
2012-6-27,99.0,81.9,63.5,57.2,46.4,39.5,56,32,16,29.87,29.72,22,7,22,0.00
2012-6-28,104.7,89.8,73.4,67.2,58.5,50.6,74,39,18,29.84,29.75,14,5,14,0.00
2012-6-29,107.2,88.0,72.1,73.6,55.3,39.8,96,40,12,29.84,29.67,13,3,13,0.00
2012-6-30,102.9,85.7,70.2,74.1,60.5,42.6,98,51,14,29.78,29.72,11,4,13,0.00
2012-7-1,99.7,82.4,73.4,73.9,65.4,50.6,100,61,20,29.93,29.78,15,2,16,0.00
2012-7-2,105.4,85.1,71.1,81.0,64.3,42.6,100,63,14,29.93,29.81,14,2,18,0.00
2012-7-3,100.6,85.9,71.2,72.9,64.0,50.6,100,56,20,29.90,29.72,13,4,13,0.00
2012-7-4,102.9,89.0,77.9,67.4,54.9,41.8,64,37,14,29.87,29.75,12,4,12,0.00
2012-7-5,106.9,89.2,74.7,68.2,54.4,42.6,70,36,12,29.90,29.81,10,2,10,0.00
2012-7-6,108.5,91.0,72.1,78.3,59.3,42.8,100,46,12,29.93,29.81,13,1,13,0.00
2012-7-7,107.2,91.1,73.8,75.5,57.5,42.8,100,40,12,29.93,29.78,11,2,13,0.00
2012-7-8,92.1,81.3,72.7,74.7,62.3,49.8,100,56,30,29.99,29.87,20,4,22,0.00
2012-7-9,96.8,78.9,62.8,66.9,53.5,41.8,100,50,18,29.99,29.90,15,3,15,0.00
2012-7-10,97.9,80.0,64.6,70.7,58.4,42.3,100,56,16,29.99,29.90,10,2,10,0.00
2012-7-11,100.6,82.6,66.6,59.1,49.1,40.5,76,37,14,30.05,29.93,12,1,12,0.00
2012-7-12,101.3,82.8,64.2,60.3,50.4,41.1,80,39,14,29.99,29.87,11,1,12,0.00
2012-7-13,101.1,78.7,66.9,74.3,59.7,42.0,100,62,14,29.99,29.90,20,3,20,0.28
2012-7-14,96.4,79.2,65.5,80.4,63.7,43.2,100,67,18,29.99,29.90,9,1,9,0.00
2012-7-15,101.7,85.6,71.8,74.5,58.4,41.8,100,52,14,30.02,29.87,11,4,11,0.00
2012-7-16,102.6,87.8,74.3,72.5,58.1,42.6,92,45,14,29.93,29.75,14,4,14,0.00
2012-7-17,103.3,89.8,76.6,70.0,56.1,42.0,80,39,14,29.84,29.75,14,5,14,0.00
2012-7-18,108.0,91.2,76.6,67.9,54.0,42.0,74,35,12,29.87,29.72,13,4,13,0.00
2012-7-19,97.9,86.5,73.4,77.2,59.1,42.7,100,45,16,29.93,29.75,23,7,23,0.04
2012-7-20,91.8,76.4,64.9,73.2,63.5,48.1,100,71,24,30.02,29.90,16,5,16,0.00
2012-7-21,99.9,79.8,63.0,70.3,55.3,39.0,100,54,16,30.05,29.96,10,2,10,0.00
2012-7-22,101.7,86.9,72.1,60.5,48.6,41.3,62,30,14,30.05,29.90,14,4,15,0.00
2012-7-23,109.8,92.3,77.9,59.0,49.0,40.8,46,26,10,29.96,29.84,13,4,13,0.00
2012-7-24,108.0,92.1,79.2,66.8,51.9,42.3,54,29,12,29.90,29.72,13,3,13,0.00
2012-7-25,107.1,92.5,77.2,77.7,54.3,41.9,100,36,12,29.78,29.58,17,6,21,0.00
2012-7-26,95.7,80.2,71.2,81.2,67.2,41.6,100,73,20,29.81,29.61,24,5,26,0.43
2012-7-27,90.7,77.1,66.6,72.0,58.3,41.3,100,61,20,29.96,29.78,17,5,18,0.43
2012-7-28,92.8,76.4,60.3,72.7,57.0,41.6,100,61,18,30.08,29.96,14,2,14,0.00
2012-7-29,96.3,78.8,67.6,75.0,63.9,48.7,100,68,22,30.05,29.84,17,4,17,0.20
2012-7-30,93.0,78.4,69.4,76.1,70.2,59.4,100,80,34,29.87,29.81,11,2,11,0.00
2012-7-31,100.8,82.7,66.9,80.2,59.6,41.8,100,58,14,29.90,29.78,14,3,14,0.00
2012-8-1,104.5,83.4,64.6,75.9,54.8,39.8,100,51,14,29.87,29.75,9,1,9,0.00
2012-8-2,102.0,85.0,70.5,77.7,54.6,42.6,100,42,14,29.78,29.70,13,3,14,0.00
2012-8-3,103.1,84.1,70.2,77.9,64.0,42.6,100,63,14,29.78,29.70,10,2,10,0.00
2012-8-4,97.9,84.0,72.9,79.9,69.1,54.2,100,67,26,29.93,29.72,18,5,18,0.00
2012-8-5,88.9,76.0,61.7,73.2,55.2,39.0,100,59,20,30.11,29.93,17,5,17,0.00
2012-8-6,97.2,75.8,55.8,70.7,50.2,38.2,100,53,16,30.11,29.93,11,2,11,0.00
2012-8-7,106.7,84.6,62.2,65.0,48.7,39.8,88,36,12,29.96,29.81,11,3,11,0.00
2012-8-8,87.3,76.3,68.9,74.8,63.2,39.3,100,67,24,29.96,29.81,17,3,17,0.04
2012-8-9,91.4,76.4,65.5,72.5,62.4,48.4,100,67,24,29.87,29.75,24,6,25,0.00
2012-8-10,81.9,67.8,57.0,65.5,53.2,37.1,100,67,24,29.96,29.84,16,6,16,0.00
2012-8-11,88.5,68.0,50.0,61.7,47.0,34.3,100,58,20,30.02,29.90,15,2,15,0.00
2012-8-12,85.5,69.4,58.8,68.4,52.3,42.6,100,57,26,29.93,29.78,24,3,24,0.12
2012-8-13,73.6,66.4,59.7,66.7,62.3,58.6,100,88,62,29.96,29.75,19,5,19,0.00
2012-8-14,89.2,71.0,54.9,66.8,51.8,39.0,100,61,20,29.99,29.84,10,2,10,0.00
2012-8-15,95.5,77.2,57.0,65.8,50.5,39.9,100,50,18,29.93,29.75,15,5,15,0.00
2012-8-16,89.2,76.2,61.5,63.4,54.0,43.5,78,47,30,29.96,29.72,25,8,25,0.00
2012-8-17,81.9,66.0,48.9,58.3,46.8,33.6,100,59,24,30.02,29.90,15,4,15,0.00
2012-8-18,86.7,65.8,46.8,62.6,46.2,39.0,100,60,22,29.99,29.84,14,2,14,0.00
2012-8-19,84.9,69.5,57.6,58.8,47.4,36.5,94,51,22,29.93,29.84,18,4,18,0.00
2012-8-20,87.6,69.4,51.3,60.3,48.7,35.6,100,57,22,29.96,29.87,16,2,16,0.00
2012-8-21,92.8,73.2,56.7,59.4,46.3,30.4,100,48,18,29.99,29.90,13,2,13,0.00
2012-8-22,102.7,80.4,59.9,55.0,44.5,37.0,72,33,14,29.99,29.87,11,3,12,0.00
2012-8-23,102.9,84.3,68.2,49.5,43.6,37.2,46,26,14,29.99,29.87,15,4,15,0.00
2012-8-24,101.1,83.9,70.0,51.2,43.3,37.8,46,26,14,29.93,29.84,24,6,24,0.00
2012-8-25,96.6,78.7,67.6,74.7,54.7,41.8,100,50,18,29.90,29.84,21,6,21,0.00
2012-8-26,85.8,74.8,70.9,81.0,73.9,68.0,100,97,62,29.93,29.84,15,4,17,0.75
2012-8-27,93.7,77.1,67.8,73.9,60.7,40.8,100,68,18,30.05,29.90,15,4,15,0.75
2012-8-28,97.3,78.5,62.4,73.2,54.9,39.8,100,57,16,30.08,29.93,12,1,12,0.75
2012-8-29,99.0,81.7,67.6,58.5,48.3,39.8,66,35,16,29.99,29.87,12,4,12,0.75
2012-8-30,100.9,83.4,68.4,61.7,48.9,39.0,78,36,14,29.96,29.84,13,5,13,0.75
2012-8-31,78.6,74.2,68.5,76.8,67.0,42.5,100,82,30,29.99,29.81,11,3,11,1.69
2012-9-1,85.8,75.9,72.0,79.0,73.0,65.8,100,92,52,29.81,29.70,13,3,13,2.40
2012-9-2,85.6,74.8,68.0,78.8,71.2,65.3,100,90,54,29.81,29.72,17,6,17,0.00
2012-9-3,95.9,84.0,68.0,78.1,63.5,48.7,100,58,22,29.84,29.78,13,2,13,0.00
2012-9-4,96.8,82.6,72.7,76.1,61.6,42.3,100,60,16,29.84,29.72,11,3,11,0.00
2012-9-5,92.5,78.3,68.2,72.6,64.7,49.1,98,68,24,29.84,29.72,31,4,31,0.00
2012-9-6,93.2,76.8,66.2,72.9,57.4,39.0,100,63,18,29.93,29.78,11,3,13,0.00
2012-9-7,88.9,71.7,58.6,70.2,62.7,48.8,100,78,26,29.90,29.70,28,7,28,0.04
2012-9-8,77.5,63.6,51.3,59.0,45.7,32.9,100,61,26,29.99,29.84,19,7,19,0.00
2012-9-9,76.3,63.0,52.3,54.5,44.9,35.1,100,58,26,30.08,29.84,18,5,20,0.00
2012-9-10,82.9,65.1,48.4,58.1,45.7,35.3,100,60,22,30.17,29.96,14,4,14,0.00
2012-9-11,89.6,73.3,58.8,57.8,48.6,36.6,92,49,20,30.05,29.93,17,7,17,0.00
2012-9-12,90.7,75.8,63.1,56.9,48.2,38.8,78,42,20,30.05,29.96,15,7,16,0.00
2012-9-13,70.3,61.0,52.3,62.1,52.2,45.1,100,75,50,30.29,30.05,18,7,21,0.20
2012-9-14,76.3,60.9,50.7,60.6,47.2,31.1,100,69,20,30.35,30.23,10,3,11,0.00
2012-9-15,78.3,61.8,46.6,56.5,44.5,32.3,100,62,26,30.26,30.08,13,3,14,0.00
2012-9-16,84.6,64.3,47.1,63.9,49.4,39.5,100,68,22,30.08,29.90,11,3,13,0.00
2012-9-17,83.8,65.1,51.3,72.9,58.8,44.5,100,86,28,29.90,29.72,28,5,28,0.20
2012-9-18,68.5,54.6,43.7,51.3,39.3,24.4,100,65,24,30.02,29.87,17,4,18,0.00
2012-9-19,80.6,63.4,46.4,43.2,38.9,31.4,88,46,20,30.05,29.78,27,10,27,0.00
2012-9-20,78.4,63.3,48.2,55.0,38.3,26.0,100,47,20,29.96,29.84,17,4,17,0.00
2012-9-21,85.6,65.2,49.3,50.2,39.8,32.3,100,43,22,29.93,29.61,18,6,18,0.00
2012-9-22,65.8,54.1,39.6,51.6,35.5,22.9,100,57,26,30.20,29.84,25,6,28,0.00
2012-9-23,69.8,53.2,35.8,46.9,32.0,20.5,100,52,24,30.29,30.14,15,3,15,0.00
2012-9-24,77.5,58.3,37.9,39.2,32.0,25.6,76,40,20,30.20,29.84,15,5,15,0.00
2012-9-25,82.4,67.6,57.6,68.4,57.5,41.5,100,76,28,29.84,29.72,13,4,13,0.63
2012-9-26,71.8,66.1,58.5,71.8,66.0,51.1,100,100,76,30.05,29.81,13,2,13,0.91
2012-9-27,78.3,62.7,51.8,58.1,46.6,35.3,100,62,26,30.17,30.05,10,1,10,0.00
2012-9-28,78.3,56.1,46.4,55.2,42.4,30.8,100,66,22,30.20,30.05,15,1,15,0.91
2012-9-29,81.0,59.7,42.1,54.0,40.5,29.6,100,60,18,30.17,29.93,13,2,13,0.00
2012-9-30,83.3,63.9,47.7,51.3,42.7,35.0,100,52,22,29.96,29.81,10,1,11,0.00
2012-10-1,75.7,60.0,49.6,52.7,42.8,32.3,100,58,24,29.87,29.75,11,1,11,0.00
2012-10-2,75.4,58.0,45.9,50.5,37.4,27.2,100,57,20,29.84,29.78,10,1,10,0.00
2012-10-3,76.6,63.7,55.9,55.5,45.2,30.1,88,54,26,29.96,29.84,13,4,14,0.00
2012-10-4,59.7,52.5,46.8,58.3,50.6,37.9,100,94,54,30.23,29.96,15,5,15,0.12
2012-10-5,48.7,44.1,36.1,48.7,39.1,29.7,100,84,54,30.29,30.17,20,5,20,0.16
2012-10-6,49.8,40.8,33.6,36.1,29.0,21.8,100,67,38,30.26,30.17,17,5,19,0.00
2012-10-7,57.6,43.2,30.4,34.2,27.1,18.9,100,58,28,30.26,30.11,15,4,15,0.00
2012-10-8,57.2,44.4,36.1,30.5,27.6,22.9,78,55,28,30.14,29.96,12,6,13,0.00
2012-10-9,71.2,54.5,43.5,48.4,37.4,28.8,100,58,28,30.05,29.84,28,9,29,0.00
2012-10-10,61.7,47.7,34.3,43.5,30.0,19.7,100,57,28,30.26,30.05,15,5,17,0.00
2012-10-11,72.5,54.2,40.6,45.6,33.0,27.4,70,47,22,30.20,30.02,18,8,20,0.00
2012-10-12,66.0,55.2,41.5,40.9,33.1,26.4,64,44,30,30.40,30.14,17,4,17,0.00
2012-10-13,72.3,61.9,53.2,67.5,59.1,40.6,100,91,60,30.17,29.72,22,8,22,1.81
2012-10-14,70.2,61.0,48.6,66.2,56.4,42.3,100,87,50,29.93,29.58,26,8,26,0.75
2012-10-15,72.1,54.8,41.9,47.8,41.3,30.8,100,67,28,30.05,29.87,8,2,8,0.00
2012-10-16,81.7,65.2,52.5,48.6,40.3,33.1,74,44,24,29.90,29.49,26,10,26,0.00
2012-10-17,65.5,59.0,48.7,62.6,48.2,32.0,100,72,30,29.55,29.40,24,9,24,0.43
2012-10-18,55.9,49.0,44.2,46.6,33.8,22.9,100,59,30,29.58,29.49,27,10,28,0.04
2012-10-19,57.9,48.5,43.7,51.3,45.4,37.9,100,91,52,29.81,29.52,16,7,16,0.04
2012-10-20,65.1,52.5,46.8,48.9,44.7,35.9,100,79,36,29.93,29.81,12,3,12,0.00
2012-10-21,80.6,63.0,46.4,56.7,49.5,42.0,100,67,30,29.93,29.81,13,5,13,0.00
2012-10-22,80.1,70.4,66.4,68.3,62.5,53.8,100,78,42,29.90,29.78,15,7,17,0.55
2012-10-23,77.7,69.7,64.8,69.6,64.2,53.1,100,85,44,29.93,29.78,23,8,23,0.12
2012-10-24,82.9,73.2,66.2,59.9,55.4,51.7,76,55,38,29.90,29.75,22,10,23,0.00
2012-10-25,75.4,58.5,39.9,61.6,49.6,28.0,100,74,48,30.23,29.70,29,14,29,0.24
2012-10-26,50.5,40.5,32.4,30.4,26.0,20.2,86,58,38,30.40,30.23,27,10,27,0.00
2012-10-27,50.0,36.8,26.4,31.8,26.7,20.2,100,71,38,30.37,30.26,16,5,16,0.00
2012-10-28,54.9,38.0,26.1,33.1,27.9,23.2,100,71,36,30.32,30.23,14,3,15,0.00
2012-10-29,55.9,39.8,25.5,39.9,26.6,18.3,100,66,30,30.35,30.17,13,2,13,0.00
2012-10-30,57.9,42.5,31.5,31.9,25.5,19.7,82,54,28,30.17,29.93,23,7,24,0.00
2012-10-31,56.1,41.2,30.7,29.4,23.5,13.3,88,54,30,30.02,29.96,17,6,17,0.00
2012-11-1,67.3,48.1,33.8,36.2,28.3,13.3,64,48,30,30.02,29.90,17,4,17,0.00
2012-11-2,60.6,44.6,31.1,36.5,29.6,22.4,100,60,28,30.14,29.99,10,3,10,0.00
2012-11-3,58.1,45.5,34.3,37.8,32.7,26.2,100,63,38,30.23,30.05,14,3,14,0.00
2012-11-4,50.4,39.7,29.5,47.5,34.6,29.5,100,84,54,30.29,30.17,8,2,8,0.00
2012-11-5,43.5,40.6,39.6,43.5,40.5,39.2,100,100,92,30.17,30.11,10,3,10,0.28
2012-11-6,50.5,43.3,39.6,46.9,42.2,38.1,100,96,70,30.14,29.93,23,5,26,0.04
2012-11-7,51.4,43.1,36.1,42.5,37.1,31.6,100,80,52,30.23,29.99,22,6,23,0.00
2012-11-8,59.7,46.1,34.3,39.8,34.6,29.9,100,69,34,30.23,30.05,16,6,16,0.00
2012-11-9,71.1,58.0,47.3,49.8,41.3,33.3,68,55,34,30.05,29.87,21,8,22,0.00
2012-11-10,77.0,66.5,58.8,50.7,42.2,32.6,68,43,26,29.96,29.81,29,14,30,0.00
2012-11-11,68.0,53.6,31.3,58.9,43.6,22.0,100,73,48,30.17,29.72,31,13,31,0.67
2012-11-12,43.3,33.1,24.6,23.5,19.2,14.7,84,58,36,30.46,30.17,20,7,20,0.00
2012-11-13,52.3,36.9,23.7,29.9,21.9,17.2,100,59,32,30.55,30.43,11,3,11,0.00
2012-11-14,57.6,42.3,34.9,29.6,24.1,20.3,62,50,28,30.49,30.37,13,6,13,0.00
2012-11-15,61.3,44.8,33.3,28.9,25.7,22.7,78,50,28,30.40,30.35,9,4,9,0.00
2012-11-16,60.6,41.2,30.9,38.4,31.8,23.2,100,72,28,30.49,30.40,8,2,8,0.00
2012-11-17,61.0,45.9,33.8,32.0,27.0,18.3,84,51,28,30.52,30.40,12,5,12,0.00
2012-11-18,64.8,49.1,37.6,31.9,26.8,20.9,78,45,26,30.40,30.26,13,6,15,0.00
2012-11-19,55.9,48.6,45.1,47.5,37.5,22.2,100,69,38,30.29,30.14,14,6,15,0.04
2012-11-20,49.1,45.7,40.5,49.1,45.7,40.5,100,100,100,30.29,30.11,9,4,9,0.04
2012-11-21,65.1,49.0,38.5,53.8,40.5,30.8,100,77,32,30.32,30.11,13,5,13,0.04
2012-11-22,69.1,56.6,42.6,45.5,35.7,26.7,74,47,30,30.20,29.90,25,12,26,0.00
2012-11-23,42.6,34.3,24.4,29.6,16.3,7.8,70,48,38,30.40,30.20,26,11,28,0.00
2012-11-24,39.0,28.6,19.2,17.0,13.4,10.2,84,54,38,30.40,30.02,13,6,13,0.00
2012-11-25,49.5,39.9,28.0,26.9,20.4,14.2,82,46,32,30.17,29.96,13,6,13,0.00
2012-11-26,46.0,32.0,26.1,27.8,23.4,16.4,98,73,40,30.43,30.17,20,7,20,0.00
2012-11-27,32.9,29.3,27.7,13.3,10.5,7.3,52,45,40,30.40,30.37,8,5,9,0.00
2012-11-28,50.5,35.6,23.4,24.6,19.7,10.8,76,54,32,30.55,30.35,10,3,10,0.00
2012-11-29,60.6,45.4,33.8,32.1,27.1,23.1,70,50,34,30.35,30.14,18,7,18,0.00
2012-11-30,64.0,50.0,41.7,35.8,29.0,22.4,74,46,32,30.23,30.14,15,6,15,0.00
2012-12-1,64.4,56.4,41.9,51.8,46.6,33.4,100,71,54,30.20,30.02,17,8,19,0.00
2012-12-2,63.1,55.4,51.1,57.7,54.0,49.8,100,95,62,30.17,30.02,12,4,13,0.00
2012-12-3,74.8,63.0,48.0,62.1,51.6,40.8,100,72,32,30.14,29.90,37,11,37,0.16
2012-12-4,62.6,49.1,37.2,47.5,29.6,19.7,88,50,26,30.46,30.14,11,4,11,0.00
2012-12-5,52.5,40.5,27.7,38.3,29.9,21.6,100,69,36,30.55,30.26,13,4,14,0.00
2012-12-6,53.1,45.3,39.4,45.3,36.4,32.8,100,72,52,30.26,30.08,13,5,14,0.08
2012-12-7,47.8,44.3,40.6,47.8,44.3,40.6,100,100,100,30.11,30.02,13,4,13,0.04
2012-12-8,45.0,39.7,37.4,41.5,37.2,30.1,100,91,60,30.23,30.05,13,5,13,0.00
2012-12-9,45.7,39.8,25.9,45.7,37.7,17.6,100,92,68,30.14,29.99,19,6,22,0.04
2012-12-10,32.5,26.1,19.9,20.8,17.7,15.2,90,71,60,30.23,30.11,19,7,19,0.00
2012-12-11,43.0,29.0,19.0,21.1,18.3,14.2,100,68,40,30.37,30.20,16,6,16,0.00
2012-12-12,51.8,37.5,26.2,23.1,17.8,12.5,70,47,32,30.49,30.35,16,8,17,0.00
2012-12-13,55.9,42.4,34.0,25.0,17.1,12.2,40,36,30,30.43,30.32,21,10,22,0.00
2012-12-14,56.7,46.0,35.8,37.3,20.8,13.2,76,37,30,30.37,30.11,22,8,23,0.00
2012-12-15,54.0,48.7,42.6,50.5,43.7,30.8,100,84,58,30.11,29.78,24,10,24,0.43
2012-12-16,48.7,41.5,37.6,46.2,36.6,32.8,100,83,72,30.02,29.90,13,5,13,0.00
2012-12-17,38.7,35.3,30.2,35.8,32.4,28.5,100,90,68,30.02,29.93,10,4,10,0.00
2012-12-18,57.6,40.0,30.2,36.1,31.2,23.5,100,75,34,30.14,29.81,27,9,27,0.00
2012-12-19,42.4,36.0,30.2,42.4,34.5,29.5,100,95,68,30.26,29.75,14,3,14,0.04
2012-12-20,43.7,33.9,21.9,43.7,31.6,13.2,100,91,68,30.23,29.46,42,14,42,0.16
2012-12-21,31.6,22.9,14.9,14.0,9.6,5.1,80,58,40,30.55,30.23,22,7,22,0.00
2012-12-22,39.7,25.8,12.2,25.5,18.1,10.3,100,75,42,30.55,30.20,13,4,13,0.00
2012-12-23,34.9,25.8,19.6,24.0,21.7,19.6,100,86,60,30.32,30.17,10,4,11,0.00
2012-12-24,26.1,22.9,20.5,26.1,20.0,11.6,100,89,68,30.43,30.17,17,8,18,0.00
2012-12-25,27.3,22.3,19.0,21.5,16.8,13.4,98,80,64,30.58,30.43,22,10,22,0.00
2012-12-26,26.6,22.8,17.6,22.1,17.9,14.6,92,81,68,30.49,30.40,25,12,25,0.00
2012-12-27,38.5,24.7,12.7,28.6,19.1,12.7,100,82,42,30.52,30.35,10,3,10,0.00
2012-12-28,34.9,31.4,28.0,30.6,28.0,24.9,100,88,68,30.37,30.23,8,4,9,0.00
2012-12-29,29.5,23.7,17.8,29.5,18.8,12.1,100,82,62,30.61,30.29,19,8,19,0.00
2012-12-30,43.7,30.8,18.5,24.0,18.2,16.1,94,63,40,30.79,18.44,20,8,20,0.00
2012-12-31,36.7,29.9,19.6,33.8,21.6,12.2,100,75,44,18.44,18.44,15,5,15,0.00
2013-1-1,23.9,14.8,7.7,14.8,6.3,-0.6,88,69,48,18.44,18.44,15,6,16,0.00